Regional Weather Roundup
Issued by NWS State College, PA

Home | Current Version | Previous Version | Text Only | Print | Product List | Glossary Off
Versions: 1 2 3 4 5 6 7 8 9 10 11 12 13 14 15 16 17 18 19 20 21 22 23 24 25 26 27 28 29 30 31 32 33 34 35 36 37 38 39 40 41 42 43 44 45 46 47 48 49 50

000
ASUS41 KCTP 290303
RWRCTP

REGIONAL WEATHER ROUNDUP
NATIONAL WEATHER SERVICE STATE COLLEGE PA
1000 PM EST SUN DEC 28 2014

Note: "fair" indicates few or no clouds below 12,000 feet with no
significant weather and/or obstructions to visibility.

* = STATION THAT DOES NOT REPORT PRECIPITATION /E.G. RAIN...SNOW...ETC/
    THUNDER OR FOG.

PAZ002>004-007>009-013>016-020>023-029>032-290400-
WESTERN PENNSYLVANIA

CITY           SKY/WX    TMP DP  RH WIND       PRES   REMARKS
ERIE           PTCLDY    36  26  67 W7        30.14R
MEADVILLE      CLOUDY    31  28  89 W6        30.11R
FRANKLIN*      CLOUDY    30  27  86 W6        30.13R
NEW CASTLE       N/A     31  30  96 CALM      30.16R
BEAVER COUNTY  NOT AVBL
BUTLER*        CLOUDY    32  30  93 CALM      30.14S
PITTSBURGH INT CLOUDY    36  30  79 CALM      30.13R
PITTSBURGH     CLOUDY    35  27  72 N5        30.12S
INDIANA*       CLOUDY    34  32  93 CALM      30.16R
LATROBE        CLOUDY    36  36 100 CALM      30.16
WASHINGTON CO* NOT AVBL
$$

PAZ004>006-010>012-017>019-024>028-033>037-041-042-045-046-049>053-290400-
CENTRAL PENNSYLVANIA

CITY           SKY/WX    TMP DP  RH WIND       PRES   REMARKS
BRADFORD       CLOUDY    29  23  78 W3        30.05S
DUBOIS         MOCLDY    30  26  85 W5        30.08R
CLEARFIELD     MOCLDY    33  25  72 NW7       30.10R
JOHNSTOWN      LGT SNOW  32  29  88 NW10      30.07R FOG
ALTOONA        CLOUDY    36  31  82 NW6       30.10R
STATE COLLEGE  MOCLDY    36  25  64 N7        30.10R
WILLIAMSPORT   MOCLDY    38  26  62 W7        30.11R
SELINSGROVE    CLOUDY    42  28  57 NW8       30.10R
FT INDIANTOWN  CLOUDY    43  29  59 VRB5      30.09R
CAPITAL CITY   CLOUDY    43  31  62 W9        30.10R
HARRISBURG     CLOUDY    41  32  70 NW7       30.09R
YORK           CLOUDY    43  31  62 N7        30.10R
$$

PAZ038>040-043-044-047-048-054-055-060>062-067>071-290400-
EASTERN PENNSYLVANIA

CITY           SKY/WX    TMP DP  RH WIND       PRES   REMARKS
SCRANTON       CLOUDY    37  26  64 NW15      30.06R
MOUNT POCONO   CLOUDY    33  25  72 NW13G22   30.01R
ALLENTOWN      CLOUDY    43  32  65 N9        30.06R
QUAKERTOWN*    CLOUDY    43  36  75 N5        30.06R
READING        CLOUDY    43  32  65 NW8       30.07R
LANCASTER      CLOUDY    43  32  65 W9        30.08R
COATESVILLE    CLOUDY    45  37  76 NW9       30.07R
POTTSTOWN      CLOUDY    45  34  65 NW9       30.07R
BLUE BELL      CLOUDY    48  37  66 N3        30.04R
DOYLESTOWN     CLOUDY    43  35  73 N6        30.04R
WILLOW GROVE   NOT AVBL
NORTH PHILA    CLOUDY    49  37  63 N12       30.06R
PHILADELPHIA   LGT RAIN  50  41  71 W7        30.06R
$$



USA.gov is the U.S. government's official web portal to all federal, state and local government web resources and services.